| time (UTC) | temp F | wind direction | speed MPH | gust MPH | rain 1hr in | rain 24hr in | rain mn in | humidity % | barometer mb |
| 20260505201005 | 83 | 188 | 7.0 | 25.0 | 0.00 | 0.00 | 0.00 | 41 | 1009.6 |
| 20260505200505 | 83 | 223 | 7.0 | 23.0 | 0.00 | 0.00 | 0.00 | 41 | 1009.6 |
| 20260505200005 | 83 | 213 | 17.0 | 28.0 | 0.00 | 0.00 | 0.00 | 41 | 1009.8 |
| 20260505195505 | 84 | 201 | 14.0 | 22.0 | 0.00 | 0.00 | 0.00 | 41 | 1009.7 |
| 20260505195005 | 84 | 207 | 16.0 | 26.0 | 0.00 | 0.00 | 0.00 | 41 | 1009.6 |
| 20260505194505 | 84 | 223 | 14.0 | 25.0 | 0.00 | 0.00 | 0.00 | 41 | 1009.7 |
| 20260505194005 | 84 | 235 | 7.0 | 25.0 | 0.00 | 0.00 | 0.00 | 42 | 1009.7 |
| 20260505193506 | 85 | 205 | 14.0 | 28.0 | 0.00 | 0.00 | 0.00 | 41 | 1009.7 |
| 20260505193005 | 85 | 209 | 12.0 | 18.0 | 0.00 | 0.00 | 0.00 | 42 | 1009.8 |
| 20260505192506 | 86 | 245 | 9.0 | 23.0 | 0.00 | 0.00 | 0.00 | 42 | 1009.8 |
| 20260505192005 | 86 | 215 | 10.0 | 23.0 | 0.00 | 0.00 | 0.00 | 43 | 1010.0 |
| 20260505191505 | 87 | 208 | 9.0 | 20.0 | 0.00 | 0.00 | 0.00 | 42 | 1010.1 |
| 20260505191004 | 87 | 242 | 9.0 | 20.0 | 0.00 | 0.00 | 0.00 | 42 | 1010.1 |
| 20260505190505 | 88 | 208 | 12.0 | 26.0 | 0.00 | 0.00 | 0.00 | 41 | 1010.1 |
| 20260505190005 | 89 | 192 | 14.0 | 23.0 | 0.00 | 0.00 | 0.00 | 41 | 1010.1 |
| 20260505185504 | 89 | 219 | 8.0 | 13.0 | 0.00 | 0.00 | 0.00 | 41 | 1010.3 |
| 20260505185004 | 90 | 217 | 13.0 | 20.0 | 0.00 | 0.00 | 0.00 | 40 | 1010.4 |
| 20260505184505 | 90 | 187 | 8.0 | 17.0 | 0.00 | 0.00 | 0.00 | 40 | 1010.5 |
| 20260505184005 | 91 | 189 | 7.0 | 13.0 | 0.00 | 0.00 | 0.00 | 40 | 1010.5 |
| 20260505183505 | 91 | 226 | 12.0 | 22.0 | 0.00 | 0.00 | 0.00 | 39 | 1010.4 |
| 20260505183005 | 91 | 203 | 6.0 | 18.0 | 0.00 | 0.00 | 0.00 | 39 | 1010.5 |
| 20260505182505 | 92 | 197 | 10.0 | 21.0 | 0.00 | 0.00 | 0.00 | 40 | 1010.5 |
| 20260505182006 | 91 | 218 | 5.0 | 18.0 | 0.00 | 0.00 | 0.00 | 41 | 1010.5 |
| 20260505181505 | 91 | 216 | 7.0 | 18.0 | 0.00 | 0.00 | 0.00 | 40 | 1010.5 |
| 20260505181005 | 92 | 208 | 10.0 | 23.0 | 0.00 | 0.00 | 0.00 | 39 | 1010.7 |
| 20260505180506 | 92 | 200 | 9.0 | 13.0 | 0.00 | 0.00 | 0.00 | 40 | 1010.9 |
| 20260505180004 | 92 | 214 | 10.0 | 15.0 | 0.00 | 0.00 | 0.00 | 40 | 1010.8 |
| 20260505175505 | 92 | 235 | 8.0 | 18.0 | 0.00 | 0.00 | 0.00 | 40 | 1011.0 |
| 20260505175005 | 91 | 211 | 4.0 | 14.0 | 0.00 | 0.00 | 0.00 | 41 | 1011.1 |
| 20260505174504 | 91 | 183 | 6.0 | 20.0 | 0.00 | 0.00 | 0.00 | 40 | 1011.0 |
| 20260505174006 | 91 | 229 | 11.0 | 15.0 | 0.00 | 0.00 | 0.00 | 39 | 1011.0 |
| 20260505173505 | 91 | 218 | 7.0 | 16.0 | 0.00 | 0.00 | 0.00 | 40 | 1011.1 |
| 20260505173005 | 92 | 212 | 10.0 | 16.0 | 0.00 | 0.00 | 0.00 | 41 | 1011.1 |
| 20260505172505 | 92 | 196 | 7.0 | 16.0 | 0.00 | 0.00 | 0.00 | 41 | 1011.0 |
| 20260505172004 | 92 | 194 | 6.0 | 17.0 | 0.00 | 0.00 | 0.00 | 41 | 1011.0 |
| 20260505171505 | 92 | 197 | 6.0 | 15.0 | 0.00 | 0.00 | 0.00 | 40 | 1011.1 |
| 20260505171005 | 92 | 194 | 6.0 | 13.0 | 0.00 | 0.00 | 0.00 | 40 | 1011.2 |
| 20260505170005 | 92 | 219 | 12.0 | 15.0 | 0.00 | 0.00 | 0.00 | 39 | 1011.2 |
| 20260505165505 | 93 | 200 | 9.0 | 14.0 | 0.00 | 0.00 | 0.00 | 39 | 1011.3 |
| 20260505164005 | 92 | 225 | 5.0 | 13.0 | 0.00 | 0.00 | 0.00 | 41 | 1011.4 |
| 20260505163506 | 92 | 208 | 4.0 | 14.0 | 0.00 | 0.00 | 0.00 | 41 | 1011.4 |
| 20260505163004 | 90 | 229 | 5.0 | 14.0 | 0.00 | 0.00 | 0.00 | 42 | 1011.4 |
| 20260505162005 | 88 | 205 | 3.0 | 12.0 | 0.00 | 0.00 | 0.00 | 42 | 1011.5 |
| 20260505161505 | 88 | 214 | 5.0 | 14.0 | 0.00 | 0.00 | 0.00 | 42 | 1011.5 |
| 20260505161005 | 89 | 218 | 6.0 | 16.0 | 0.00 | 0.00 | 0.00 | 42 | 1011.6 |
| 20260505153005 | 88 | 191 | 5.0 | 14.0 | 0.00 | 0.00 | 0.00 | 43 | 1011.9 |
| 20260505152505 | 89 | 213 | 5.0 | 10.0 | 0.00 | 0.00 | 0.00 | 43 | 1012.0 |
| 20260505152005 | 89 | 210 | 3.0 | 12.0 | 0.00 | 0.00 | 0.00 | 44 | 1012.0 |
| 20260505151005 | 87 | 211 | 6.0 | 13.0 | 0.00 | 0.00 | 0.00 | 45 | 1012.0 |
| 20260505150505 | 86 | 225 | 2.0 | 14.0 | 0.00 | 0.00 | 0.00 | 47 | 1012.0 |
| 20260505140505 | 88 | 211 | 5.0 | 12.0 | 0.00 | 0.00 | 0.00 | 43 | 1012.2 |
| 20260505125004 | 81 | 202 | 1.0 | 6.0 | 0.00 | 0.00 | 0.00 | 53 | 1012.2 |
| 20260505124505 | 79 | 244 | 3.0 | 9.0 | 0.00 | 0.00 | 0.00 | 54 | 1012.2 |
| 20260505124005 | 79 | 231 | 5.0 | 14.0 | 0.00 | 0.00 | 0.00 | 53 | 1012.2 |
| 20260505122505 | 76 | 192 | 1.0 | 7.0 | 0.00 | 0.00 | 0.00 | 59 | 1012.1 |
| 20260505122005 | 74 | 200 | 3.0 | 10.0 | 0.00 | 0.00 | 0.00 | 58 | 1012.1 |
| 20260505121504 | 76 | 199 | 5.0 | 12.0 | 0.00 | 0.00 | 0.00 | 56 | 1012.2 |
| 20260505121005 | 79 | 215 | 3.0 | 9.0 | 0.00 | 0.00 | 0.00 | 55 | 1012.1 |
| 20260505120504 | 80 | 229 | 2.0 | 8.0 | 0.00 | 0.00 | 0.00 | 55 | 1012.2 |
| 20260505120005 | 79 | 192 | 1.0 | 6.0 | 0.00 | 0.00 | 0.00 | 57 | 1012.0 |
| 20260505115510 | 77 | 241 | 2.0 | 10.0 | 0.00 | 0.00 | 0.00 | 60 | 1012.1 |
| 20260505115004 | 75 | 216 | 3.0 | 10.0 | 0.00 | 0.00 | 0.00 | 62 | 1011.9 |
| 20260505113005 | 74 | 231 | 1.0 | 7.0 | 0.00 | 0.00 | 0.00 | 64 | 1011.6 |
| 20260505112505 | 73 | 191 | 2.0 | 8.0 | 0.00 | 0.00 | 0.00 | 68 | 1011.6 |
| 20260505112005 | 70 | 215 | 2.0 | 10.0 | 0.00 | 0.00 | 0.00 | 72 | 1011.6 |
| 20260505111504 | 67 | 186 | 5.0 | 7.0 | 0.00 | 0.00 | 0.00 | 77 | 1011.8 |
| 20260505111005 | 63 | 185 | 2.0 | 12.0 | 0.00 | 0.00 | 0.00 | 83 | 1011.7 |
| 20260505110504 | 60 | 209 | 6.0 | 8.0 | 0.00 | 0.00 | 0.00 | 85 | 1011.7 |
| 20260505102004 | 57 | 202 | 0.0 | 1.0 | 0.00 | 0.00 | 0.00 | 88 | 1011.2 |
| 20260505101505 | 57 | 202 | 0.0 | 7.0 | 0.00 | 0.00 | 0.00 | 88 | 1011.2 |
| 20260505101004 | 57 | 188 | 0.0 | 3.0 | 0.00 | 0.00 | 0.00 | 88 | 1011.1 |
| 20260505100505 | 57 | 202 | 0.0 | 0.0 | 0.00 | 0.00 | 0.00 | 88 | 1011.1 |
| 20260505100004 | 57 | 180 | 0.0 | 2.0 | 0.00 | 0.00 | 0.00 | 88 | 1011.2 |
| 20260505095504 | 57 | 182 | 0.0 | 3.0 | 0.00 | 0.00 | 0.00 | 88 | 1011.1 |
| 20260505095006 | 58 | 202 | 0.0 | 3.0 | 0.00 | 0.00 | 0.00 | 88 | 1011.2 |
| 20260505094505 | 58 | 187 | 0.0 | 3.0 | 0.00 | 0.00 | 0.00 | 88 | 1011.2 |
| 20260505094005 | 58 | 202 | 1.0 | 3.0 | 0.00 | 0.00 | 0.00 | 87 | 1011.3 |
| 20260505093505 | 58 | 187 | 2.0 | 6.0 | 0.00 | 0.00 | 0.00 | 87 | 1011.2 |
| 20260505092505 | 58 | 203 | 0.0 | 3.0 | 0.00 | 0.00 | 0.00 | 87 | 1011.1 |
| 20260505092004 | 58 | 202 | 1.0 | 6.0 | 0.00 | 0.00 | 0.00 | 88 | 1011.1 |
| 20260505091505 | 58 | 209 | 0.0 | 5.0 | 0.00 | 0.00 | 0.00 | 88 | 1011.2 |
| 20260505091005 | 58 | 202 | 0.0 | 0.0 | 0.00 | 0.00 | 0.00 | 87 | 1011.1 |
| 20260505090504 | 58 | 183 | 0.0 | 2.0 | 0.00 | 0.00 | 0.00 | 88 | 1011.2 |
| 20260505090005 | 58 | 217 | 0.0 | 3.0 | 0.00 | 0.00 | 0.00 | 88 | 1011.2 |
| 20260505085504 | 58 | 180 | 0.0 | 1.0 | 0.00 | 0.00 | 0.00 | 87 | 1011.0 |
| 20260505085004 | 58 | 202 | 1.0 | 5.0 | 0.00 | 0.00 | 0.00 | 87 | 1011.2 |
| 20260505084504 | 58 | 222 | 0.0 | 6.0 | 0.00 | 0.00 | 0.00 | 87 | 1011.3 |
| 20260505084004 | 58 | 210 | 1.0 | 6.0 | 0.00 | 0.00 | 0.00 | 87 | 1011.3 |
| 20260505083504 | 58 | 220 | 0.0 | 6.0 | 0.00 | 0.00 | 0.00 | 87 | 1011.4 |
| 20260505083005 | 58 | 202 | 1.0 | 6.0 | 0.00 | 0.00 | 0.00 | 87 | 1011.2 |
| 20260505082505 | 58 | 184 | 0.0 | 6.0 | 0.00 | 0.00 | 0.00 | 86 | 1011.2 |
| 20260505082005 | 58 | 194 | 2.0 | 7.0 | 0.00 | 0.00 | 0.00 | 86 | 1011.2 |
| 20260505081505 | 59 | 184 | 1.0 | 7.0 | 0.00 | 0.00 | 0.00 | 85 | 1011.0 |
| 20260505081004 | 59 | 215 | 0.0 | 3.0 | 0.00 | 0.00 | 0.00 | 85 | 1011.1 |
| 20260505080504 | 59 | 181 | 1.0 | 8.0 | 0.00 | 0.00 | 0.00 | 85 | 1011.0 |
| 20260505075005 | 59 | 224 | 1.0 | 5.0 | 0.00 | 0.00 | 0.00 | 85 | 1011.1 |
| 20260505074505 | 59 | 219 | 4.0 | 7.0 | 0.00 | 0.00 | 0.00 | 85 | 1011.0 |
| 20260505074004 | 59 | 194 | 1.0 | 7.0 | 0.00 | 0.00 | 0.00 | 85 | 1011.0 |
| 20260505073504 | 60 | 205 | 2.0 | 8.0 | 0.00 | 0.00 | 0.00 | 85 | 1010.9 |
| 20260505073005 | 60 | 191 | 2.0 | 7.0 | 0.00 | 0.00 | 0.00 | 84 | 1010.8 |
| 20260505072005 | 60 | 181 | 4.0 | 9.0 | 0.00 | 0.00 | 0.00 | 84 | 1010.9 |
| 20260505071005 | 60 | 207 | 2.0 | 7.0 | 0.00 | 0.00 | 0.00 | 84 | 1010.8 |
| 20260505070505 | 60 | 225 | 2.0 | 7.0 | 0.00 | 0.00 | 0.00 | 84 | 1010.8 |
| 20260505070005 | 59 | 180 | 1.0 | 7.0 | 0.00 | 0.00 | 0.00 | 85 | 1010.8 |
| 20260505065504 | 59 | 202 | 6.0 | 10.0 | 0.00 | 0.00 | 0.00 | 86 | 1010.8 |
| 20260505065004 | 59 | 204 | 1.0 | 7.0 | 0.00 | 0.00 | 0.00 | 85 | 1010.8 |
| 20260505064505 | 58 | 196 | 5.0 | 9.0 | 0.00 | 0.00 | 0.00 | 86 | 1010.8 |
| 20260505064005 | 58 | 199 | 1.0 | 5.0 | 0.00 | 0.00 | 0.00 | 85 | 1010.7 |
| 20260505063505 | 58 | 214 | 2.0 | 6.0 | 0.00 | 0.00 | 0.00 | 85 | 1010.8 |
| 20260505063004 | 58 | 220 | 1.0 | 5.0 | 0.00 | 0.00 | 0.00 | 85 | 1010.9 |
| 20260505062504 | 58 | 202 | 2.0 | 7.0 | 0.00 | 0.00 | 0.00 | 85 | 1010.8 |
| 20260505062004 | 58 | 203 | 1.0 | 6.0 | 0.00 | 0.00 | 0.00 | 85 | 1010.8 |
| 20260505061004 | 58 | 186 | 0.0 | 0.0 | 0.00 | 0.00 | 0.00 | 85 | 1010.9 |
| 20260505060004 | 58 | 190 | 0.0 | 7.0 | 0.00 | 0.00 | 0.00 | 85 | 1010.8 |
| 20260505055504 | 58 | 203 | 0.0 | 5.0 | 0.00 | 0.00 | 0.00 | 84 | 1010.9 |
| 20260505055004 | 58 | 203 | 2.0 | 8.0 | 0.00 | 0.00 | 0.00 | 84 | 1010.9 |
| 20260505054504 | 58 | 212 | 1.0 | 6.0 | 0.00 | 0.00 | 0.00 | 84 | 1011.0 |
| 20260505054004 | 59 | 173 | 2.0 | 6.0 | 0.00 | 0.00 | 0.00 | 83 | 1010.9 |
| 20260505053504 | 59 | 203 | 3.0 | 9.0 | 0.00 | 0.00 | 0.00 | 83 | 1011.0 |
| 20260505053005 | 59 | 189 | 4.0 | 13.0 | 0.00 | 0.00 | 0.00 | 83 | 1011.1 |
| 20260505052504 | 59 | 208 | 2.0 | 7.0 | 0.00 | 0.00 | 0.00 | 83 | 1011.0 |
| 20260505052004 | 59 | 184 | 1.0 | 10.0 | 0.00 | 0.00 | 0.00 | 83 | 1011.0 |
| 20260505051004 | 59 | 225 | 2.0 | 0.0 | 0.00 | 0.00 | 0.00 | 83 | 1011.0 |
| 20260505050504 | 59 | 225 | 2.0 | 0.0 | 0.00 | 0.00 | 0.00 | 83 | 1011.0 |
| 20260505041504 | 59 | 182 | 2.0 | 7.0 | 0.00 | 0.00 | 0.00 | 81 | 1011.3 |
| 20260505041005 | 59 | 219 | 3.0 | 8.0 | 0.00 | 0.00 | 0.00 | 81 | 1011.2 |
| 20260505040504 | 59 | 207 | 5.0 | 15.0 | 0.00 | 0.00 | 0.00 | 81 | 1011.2 |
| 20260505040005 | 59 | 166 | 2.0 | 9.0 | 0.00 | 0.00 | 0.00 | 80 | 1011.3 |
| 20260505035503 | 59 | 202 | 1.0 | 9.0 | 0.00 | 0.00 | 0.00 | 80 | 1011.3 |
| 20260505035004 | 59 | 197 | 5.0 | 12.0 | 0.00 | 0.00 | 0.00 | 80 | 1011.1 |
| 20260505034505 | 59 | 225 | 2.0 | 9.0 | 0.00 | 0.00 | 0.00 | 79 | 1011.2 |
| 20260505034004 | 59 | 191 | 2.0 | 9.0 | 0.00 | 0.00 | 0.00 | 78 | 1011.0 |
| 20260505033504 | 59 | 198 | 1.0 | 9.0 | 0.00 | 0.00 | 0.00 | 78 | 1011.1 |
| 20260505033004 | 60 | 221 | 1.0 | 5.0 | 0.00 | 0.00 | 0.00 | 77 | 1011.0 |
| 20260505032504 | 60 | 223 | 0.0 | 7.0 | 0.00 | 0.00 | 0.00 | 77 | 1011.1 |
| 20260505032004 | 60 | 186 | 2.0 | 7.0 | 0.00 | 0.00 | 0.00 | 77 | 1011.1 |
| 20260505031004 | 60 | 202 | 1.0 | 8.0 | 0.00 | 0.00 | 0.00 | 76 | 1011.3 |
| 20260505030504 | 60 | 204 | 1.0 | 8.0 | 0.00 | 0.00 | 0.00 | 76 | 1011.3 |
| 20260505030004 | 60 | 201 | 2.0 | 7.0 | 0.00 | 0.00 | 0.00 | 76 | 1011.2 |
| 20260505025504 | 60 | 202 | 1.0 | 7.0 | 0.00 | 0.00 | 0.00 | 75 | 1011.3 |
| 20260505024504 | 60 | 213 | 1.0 | 7.0 | 0.00 | 0.00 | 0.00 | 75 | 1011.3 |
| 20260505024004 | 60 | 202 | 0.0 | 5.0 | 0.00 | 0.00 | 0.00 | 75 | 1011.3 |
| 20260505023504 | 60 | 195 | 1.0 | 5.0 | 0.00 | 0.00 | 0.00 | 75 | 1011.3 |
| 20260505023004 | 60 | 202 | 1.0 | 5.0 | 0.00 | 0.00 | 0.00 | 74 | 1011.4 |
| 20260505022504 | 60 | 201 | 0.0 | 5.0 | 0.00 | 0.00 | 0.00 | 74 | 1011.3 |
| 20260505022004 | 60 | 203 | 1.0 | 8.0 | 0.00 | 0.00 | 0.00 | 74 | 1011.4 |
| 20260505021504 | 60 | 189 | 1.0 | 7.0 | 0.00 | 0.00 | 0.00 | 74 | 1011.4 |
| 20260505021004 | 60 | 180 | 0.0 | 3.0 | 0.00 | 0.00 | 0.00 | 74 | 1011.5 |
| 20260505015504 | 60 | 218 | 0.0 | 3.0 | 0.00 | 0.00 | 0.00 | 73 | 1011.4 |
| 20260505015005 | 60 | 204 | 2.0 | 6.0 | 0.00 | 0.00 | 0.00 | 73 | 1011.3 |
| 20260505014504 | 61 | 185 | 1.0 | 9.0 | 0.00 | 0.00 | 0.00 | 73 | 1011.3 |
| 20260505014004 | 60 | 212 | 2.0 | 7.0 | 0.00 | 0.00 | 0.00 | 72 | 1011.3 |
| 20260505013504 | 60 | 218 | 1.0 | 7.0 | 0.00 | 0.00 | 0.00 | 72 | 1011.3 |
| 20260505012004 | 61 | 211 | 0.0 | 0.0 | 0.00 | 0.00 | 0.00 | 69 | 1011.3 |
| 20260505011004 | 61 | 202 | 0.0 | 2.0 | 0.00 | 0.00 | 0.00 | 68 | 1011.1 |
| 20260505010504 | 62 | 202 | 0.0 | 0.0 | 0.00 | 0.00 | 0.00 | 68 | 1011.1 |
| 20260505010005 | 62 | 192 | 1.0 | 6.0 | 0.00 | 0.00 | 0.00 | 67 | 1010.9 |
| 20260505005504 | 62 | 182 | 1.0 | 6.0 | 0.00 | 0.00 | 0.00 | 66 | 1010.8 |
| 20260505004504 | 62 | 202 | 1.0 | 3.0 | 0.00 | 0.00 | 0.00 | 63 | 1010.9 |
| 20260505004004 | 62 | 202 | 0.0 | 7.0 | 0.00 | 0.00 | 0.00 | 62 | 1010.9 |
| 20260505003504 | 63 | 180 | 2.0 | 8.0 | 0.00 | 0.00 | 0.00 | 60 | 1011.0 |
| 20260505002004 | 64 | 180 | 1.0 | 8.0 | 0.00 | 0.00 | 0.00 | 57 | 1010.8 |
| 20260505001504 | 64 | 200 | 0.0 | 0.0 | 0.00 | 0.00 | 0.00 | 56 | 1010.7 |
| 20260505001004 | 65 | 202 | 0.0 | 3.0 | 0.00 | 0.00 | 0.00 | 55 | 1010.8 |
| 20260505000005 | 65 | 190 | 1.0 | 7.0 | 0.00 | 0.00 | 0.00 | 54 | 1010.7 |
| 20260504235506 | 66 | 188 | 0.0 | 3.0 | 0.00 | 0.00 | 0.00 | 53 | 1010.6 |
| 20260504235006 | 66 | 202 | 1.0 | 7.0 | 0.00 | 0.00 | 0.00 | 52 | 1010.6 |
| 20260504234005 | 67 | 180 | 0.0 | 2.0 | 0.00 | 0.00 | 0.00 | 51 | 1010.4 |
| 20260504232506 | 68 | 198 | 5.0 | 10.0 | 0.00 | 0.00 | 0.00 | 49 | 1010.4 |
| 20260504232006 | 68 | 221 | 3.0 | 10.0 | 0.00 | 0.00 | 0.00 | 49 | 1010.3 |
| 20260504231506 | 69 | 198 | 3.0 | 12.0 | 0.00 | 0.00 | 0.00 | 48 | 1010.3 |
| 20260504231005 | 69 | 202 | 3.0 | 10.0 | 0.00 | 0.00 | 0.00 | 48 | 1010.3 |
| 20260504230506 | 69 | 203 | 5.0 | 13.0 | 0.00 | 0.00 | 0.00 | 48 | 1010.2 |
| 20260504230005 | 70 | 202 | 1.0 | 9.0 | 0.00 | 0.00 | 0.00 | 47 | 1010.2 |
| 20260504225005 | 70 | 184 | 3.0 | 12.0 | 0.00 | 0.00 | 0.00 | 45 | 1010.2 |
| 20260504224505 | 71 | 225 | 4.0 | 12.0 | 0.00 | 0.00 | 0.00 | 45 | 1010.2 |
| 20260504224006 | 71 | 213 | 4.0 | 12.0 | 0.00 | 0.00 | 0.00 | 44 | 1010.1 |
| 20260504223505 | 71 | 207 | 0.0 | 6.0 | 0.00 | 0.00 | 0.00 | 44 | 1010.2 |
| 20260504222505 | 72 | 228 | 4.0 | 10.0 | 0.00 | 0.00 | 0.00 | 42 | 1010.3 |
| 20260504222005 | 72 | 195 | 2.0 | 13.0 | 0.00 | 0.00 | 0.00 | 42 | 1010.2 |
| 20260504221505 | 72 | 188 | 5.0 | 13.0 | 0.00 | 0.00 | 0.00 | 41 | 1010.2 |
| 20260504221005 | 72 | 208 | 3.0 | 13.0 | 0.00 | 0.00 | 0.00 | 41 | 1010.2 |
| 20260504220505 | 72 | 221 | 5.0 | 12.0 | 0.00 | 0.00 | 0.00 | 41 | 1010.1 |
| 20260504220005 | 72 | 230 | 3.0 | 9.0 | 0.00 | 0.00 | 0.00 | 41 | 1010.2 |
| 20260504215506 | 72 | 221 | 3.0 | 13.0 | 0.00 | 0.00 | 0.00 | 40 | 1010.2 |
| 20260504215006 | 72 | 225 | 2.0 | 10.0 | 0.00 | 0.00 | 0.00 | 40 | 1010.4 |
| 20260504214505 | 73 | 224 | 1.0 | 9.0 | 0.00 | 0.00 | 0.00 | 40 | 1010.3 |
| 20260504214006 | 73 | 224 | 6.0 | 17.0 | 0.00 | 0.00 | 0.00 | 39 | 1010.3 |
| 20260504213506 | 73 | 221 | 2.0 | 14.0 | 0.00 | 0.00 | 0.00 | 40 | 1010.3 |
| 20260504213005 | 73 | 241 | 2.0 | 17.0 | 0.00 | 0.00 | 0.00 | 39 | 1010.3 |
| 20260504212506 | 73 | 226 | 7.0 | 13.0 | 0.00 | 0.00 | 0.00 | 39 | 1010.3 |
| 20260504212006 | 73 | 209 | 5.0 | 13.0 | 0.00 | 0.00 | 0.00 | 39 | 1010.4 |
| 20260504211504 | 73 | 203 | 2.0 | 15.0 | 0.00 | 0.00 | 0.00 | 39 | 1010.4 |
| 20260504210506 | 73 | 233 | 8.0 | 18.0 | 0.00 | 0.00 | 0.00 | 39 | 1010.3 |
| 20260504210005 | 74 | 231 | 9.0 | 16.0 | 0.00 | 0.00 | 0.00 | 39 | 1010.4 |
| 20260504205005 | 74 | 208 | 2.0 | 12.0 | 0.00 | 0.00 | 0.00 | 39 | 1010.3 |
| 20260504204505 | 74 | 222 | 2.0 | 16.0 | 0.00 | 0.00 | 0.00 | 39 | 1010.4 |
| 20260504204005 | 75 | 196 | 10.0 | 15.0 | 0.00 | 0.00 | 0.00 | 38 | 1010.5 |
| 20260504202505 | 75 | 205 | 1.0 | 14.0 | 0.00 | 0.00 | 0.00 | 38 | 1010.5 |
| 20260504202005 | 75 | 215 | 2.0 | 13.0 | 0.00 | 0.00 | 0.00 | 38 | 1010.5 |
| 20260504201505 | 75 | 223 | 5.0 | 17.0 | 0.00 | 0.00 | 0.00 | 38 | 1010.7 |